Regional Weather Roundup
Issued by NWS

Home | Current Version | Previous Version | Graphics & Text | Print | Product List | Glossary On
Versions: 1 2 3 4 5 6 7 8 9 10 11 12 13 14 15 16 17 18 19 20 21 22 23 24 25 26 27 28 29 30 31 32 33 34 35 36 37 38 39 40 41 42 43 44 45 46 47 48 49 50
000
ASUS43 KFSD 040710
RWRSD

WEATHER ROUNDUP FOR SOUTH DAKOTA
NATIONAL WEATHER SERVICE SIOUX FALLS SD
200 AM CDT WED MAY 04 2016

NOTE: "FAIR" INDICATES FEW OR NO CLOUDS BELOW 12,000 FEET WITH NO
SIGNIFICANT WEATHER AND/OR OBSTRUCTIONS TO VISIBILITY.


SDZ001>005-009-010-012>017-040800-
NORTHWEST AND NORTH CENTRAL SOUTH DAKOTA

CITY           SKY/WX    TMP DP  RH WIND       PRES   REMARKS
BUFFALO          N/A     54  38  54 W6        30.06S
FAITH            N/A     53  38  56 N6        30.10R
MOBRIDGE       CLEAR     47  33  58 NW5       30.06R
$$

SDZ012>016-024>037-041>051-057-063-072>074-040800-
SOUTHWEST AND SOUTH CENTRAL SOUTH DAKOTA

CITY           SKY/WX    TMP DP  RH WIND       PRES   REMARKS
RAPID CTY ARPT CLEAR     52  38  58 N10       30.12R
PIERRE         CLEAR     47  34  60 NE6       30.06R
CUSTER         CLEAR     44  32  62 NW6       30.22S
ELLSWORTH AFB  CLEAR     56  38  49 N6        30.12R
PHILIP         CLEAR     45  41  86 W5        30.08R
PINE RIDGE     CLEAR     42  36  79 W3        30.13R
WINNER         FAIR      49  41  74 W3        30.06R
$$

SDZ004>011-016>023-039-040-040800-
NORTHEAST SOUTH DAKOTA

CITY           SKY/WX    TMP DP  RH WIND       PRES   REMARKS
ABERDEEN       CLEAR     43  31  62 N10       30.04R
WATERTOWN      PTCLDY    41  31  67 N8        29.99R
BROOKINGS      CLEAR     42  32  67 N5        29.97R
SISSETON         N/A     45  31  58 NW10      29.99R
$$

SDZ017-020-022-023-036>040-048>070-040800-
SOUTHEAST SOUTH DAKOTA

CITY           SKY/WX    TMP DP  RH WIND       PRES   REMARKS
SIOUX FALLS    CLEAR     47  33  58 N12       29.96R
HURON          CLEAR     43  32  65 N8        30.02R
CHAMBERLAIN    CLEAR     55  33  42 N9        30.05R
MITCHELL       CLEAR     49  37  63 N9        30.01R
YANKTON        CLEAR     46  36  66 NW10      29.97R
$$

ABBREVIATIONS USED IN REMARKS
   TC - TEMPERATURE IN CELSIUS
  WCI - WIND CHILL INDEX
   HX - HEAT INDEX
  VSB - VISIBILITY




USA.gov is the U.S. government's official web portal to all federal, state and local government web resources and services.